UAE9912 LIMC-OMDW

Flight info

Callsign UAE9912
Flight time 5h 52m
Altitude 31000
Route ROBAS6Q ROBAS DCT IBNAN DCT IPDAB DCT LUMAV DCT NIKOL DCT AMUGO DCT VAKSU/N0460F330 DCT DIMIS DCT VELOP UY151 PLH UL604 SALUN N705 MMA P751 DASUM/N0480F350 Y234 FYM M872 BDB Y214 RAPMA DCT KUVSO DCT KATIT DCT PEKEM M628 RIGIL G783 ASPED Q308 PEDOG R401 GIDIS
Aircraft B77L/H-SDE1E2E3FGHIJ2J3J4J5M1RWXY/LB1D1

Departure

Time 2026-04-21 09:04
Airport Milan Malpensa International Airport (LIMC)

Arrival

Time 2026-04-21 14:56
Airport Al Maktoum International Airport (OMDW)
Time Latitude Longitude Altitude Speed Heading
2026-04-21 08:22 45.60941 8.72039 746 ft 0 kts 259°
2026-04-21 08:51 45.60942 8.72044 746 ft 4 kts 259°
2026-04-21 08:51 45.60946 8.72076 742 ft 4 kts 259°
2026-04-21 08:51 45.60951 8.72115 742 ft 4 kts 259°
2026-04-21 08:52 45.60956 8.72139 742 ft 2 kts 232°
2026-04-21 08:52 45.60967 8.72153 742 ft 3 kts 203°
2026-04-21 08:52 45.60984 8.72160 746 ft 2 kts 182°
2026-04-21 08:52 45.60997 8.72160 742 ft 2 kts 175°
2026-04-21 08:53 45.61008 8.72158 744 ft 2 kts 171°
2026-04-21 08:53 45.61012 8.72157 743 ft 0 kts 170°
2026-04-21 08:56 45.61009 8.72158 743 ft 2 kts 170°
2026-04-21 08:56 45.60949 8.72174 744 ft 13 kts 169°
2026-04-21 08:56 45.60859 8.72199 744 ft 13 kts 168°
2026-04-21 08:56 45.60770 8.72225 744 ft 13 kts 169°
2026-04-21 08:57 45.60681 8.72250 746 ft 12 kts 168°
2026-04-21 08:57 45.60636 8.72336 744 ft 12 kts 88°
2026-04-21 08:57 45.60641 8.72451 743 ft 12 kts 93°
2026-04-21 08:57 45.60634 8.72585 746 ft 16 kts 95°
2026-04-21 08:58 45.60620 8.72767 746 ft 21 kts 96°
2026-04-21 08:58 45.60604 8.72985 744 ft 22 kts 96°
2026-04-21 08:58 45.60599 8.73190 743 ft 19 kts 76°
2026-04-21 08:58 45.60680 8.73297 743 ft 16 kts 22°
2026-04-21 08:59 45.60784 8.73358 744 ft 16 kts 22°
2026-04-21 08:59 45.60886 8.73406 746 ft 15 kts
2026-04-21 08:59 45.60987 8.73386 744 ft 15 kts 349°
2026-04-21 08:59 45.61107 8.73352 744 ft 19 kts 348°
2026-04-21 09:00 45.61237 8.73315 744 ft 19 kts 350°
2026-04-21 09:00 45.61368 8.73280 745 ft 19 kts 348°
2026-04-21 09:00 45.61496 8.73243 744 ft 18 kts 348°
2026-04-21 09:00 45.61598 8.73246 744 ft 14 kts 41°
2026-04-21 09:01 45.61631 8.73357 745 ft 11 kts 77°
2026-04-21 09:01 45.61620 8.73463 744 ft 11 kts 115°
2026-04-21 09:01 45.61591 8.73566 743 ft 11 kts 105°
2026-04-21 09:01 45.61595 8.73675 743 ft 10 kts 79°
2026-04-21 09:02 45.61637 8.73733 743 ft 8 kts
2026-04-21 09:02 45.61660 8.73728 742 ft 0 kts 348°
2026-04-21 09:03 45.62201 8.73579 742 ft 97 kts 349°
2026-04-21 09:03 45.63050 8.73343 744 ft 148 kts 349°
2026-04-21 09:03 45.64195 8.73048 806 ft 178 kts 353°
2026-04-21 09:03 45.65387 8.72770 1294 ft 172 kts 353°
2026-04-21 09:04 45.66580 8.72610 1688 ft 173 kts
2026-04-21 09:04 45.67791 8.72682 2023 ft 181 kts
2026-04-21 09:04 45.69101 8.72666 2397 ft 187 kts
2026-04-21 09:04 45.70391 8.72636 2880 ft 187 kts
2026-04-21 09:05 45.71670 8.72771 3216 ft 187 kts 25°
2026-04-21 09:05 45.72579 8.73988 3513 ft 181 kts 65°
2026-04-21 09:05 45.73138 8.75606 3934 ft 182 kts 64°
2026-04-21 09:05 45.73717 8.77226 4365 ft 183 kts 64°
2026-04-21 09:06 45.74286 8.78871 4730 ft 188 kts 62°
2026-04-21 09:06 45.74673 8.80712 4795 ft 203 kts 97°
2026-04-21 09:06 45.74209 8.82682 4955 ft 217 kts 112°
2026-04-21 09:06 45.73573 8.84756 5140 ft 236 kts 120°
2026-04-21 09:07 45.72610 8.86731 5564 ft 247 kts 126°
2026-04-21 09:07 45.71544 8.88725 5983 ft 261 kts 126°
2026-04-21 09:07 45.70414 8.90849 6484 ft 272 kts 126°
2026-04-21 09:07 45.69279 8.93019 7054 ft 279 kts 126°
2026-04-21 09:08 45.68119 8.95277 7724 ft 283 kts 126°
2026-04-21 09:08 45.66950 8.97569 8396 ft 287 kts 126°
2026-04-21 09:08 45.65761 8.99909 8995 ft 293 kts 126°
2026-04-21 09:08 45.64558 9.02266 9722 ft 295 kts 127°
2026-04-21 09:09 45.63230 9.04549 10288 ft 301 kts 132°
2026-04-21 09:09 45.61773 9.06837 10504 ft 322 kts 133°
2026-04-21 09:09 45.60194 9.09267 10679 ft 344 kts 133°
2026-04-21 09:09 45.58524 9.11837 11092 ft 358 kts 133°
2026-04-21 09:10 45.56817 9.14478 11711 ft 366 kts 133°
2026-04-21 09:10 45.55101 9.17145 12421 ft 371 kts 133°
2026-04-21 09:10 45.53346 9.19882 13174 ft 376 kts 133°
2026-04-21 09:10 45.51559 9.22672 13905 ft 381 kts 133°
2026-04-21 09:11 45.49751 9.25495 14535 ft 387 kts 133°
2026-04-21 09:11 45.47939 9.28326 15133 ft 394 kts 133°
2026-04-21 09:11 45.46076 9.31233 15721 ft 400 kts 134°
2026-04-21 09:11 45.44177 9.34194 16352 ft 406 kts 134°
2026-04-21 09:12 45.42254 9.37190 16979 ft 412 kts 134°
2026-04-21 09:12 45.40297 9.40235 17586 ft 418 kts 134°
2026-04-21 09:12 45.38341 9.43274 18182 ft 424 kts 134°
2026-04-21 09:12 45.36328 9.46398 18714 ft 430 kts 134°
2026-04-21 09:13 45.34299 9.49546 19256 ft 434 kts 134°
2026-04-21 09:13 45.32247 9.52726 19795 ft 439 kts 134°
2026-04-21 09:13 45.30161 9.55953 20319 ft 443 kts 134°
2026-04-21 09:13 45.28062 9.59197 20855 ft 448 kts 134°
2026-04-21 09:14 45.25941 9.62474 21367 ft 453 kts 134°
2026-04-21 09:14 45.23825 9.65738 21876 ft 458 kts 135°
2026-04-21 09:14 45.21646 9.69094 22390 ft 462 kts 135°
2026-04-21 09:14 45.19596 9.72639 22780 ft 469 kts 122°
2026-04-21 09:15 45.18313 9.76906 23178 ft 470 kts 103°
2026-04-21 09:15 45.17534 9.81380 23606 ft 475 kts 102°
2026-04-21 09:15 45.16725 9.85955 24029 ft 479 kts 103°
2026-04-21 09:15 45.15873 9.90547 24523 ft 482 kts 103°
2026-04-21 09:16 45.14989 9.95138 25004 ft 484 kts 104°
2026-04-21 09:16 45.14079 9.99774 25459 ft 488 kts 104°
2026-04-21 09:16 45.13175 10.04367 25882 ft 491 kts 104°
2026-04-21 09:16 45.12252 10.09047 26313 ft 495 kts 104°
2026-04-21 09:17 45.11289 10.13769 26742 ft 498 kts 105°
2026-04-21 09:17 45.10297 10.18493 27175 ft 502 kts 105°
2026-04-21 09:17 45.09288 10.23238 27600 ft 505 kts 105°
2026-04-21 09:17 45.08272 10.28005 28006 ft 509 kts 105°
2026-04-21 09:18 45.07258 10.32768 28408 ft 512 kts 105°
2026-04-21 09:18 45.06229 10.37614 28825 ft 515 kts 105°
2026-04-21 09:18 45.05192 10.42500 29228 ft 519 kts 105°
2026-04-21 09:18 45.04153 10.47388 29625 ft 522 kts 105°
2026-04-21 09:19 45.03101 10.52329 29977 ft 526 kts 105°
2026-04-21 09:19 45.02042 10.57291 30278 ft 529 kts 105°
2026-04-21 09:19 45.00973 10.62286 30498 ft 532 kts 105°
2026-04-21 09:19 44.99897 10.67299 30686 ft 533 kts 105°
2026-04-21 09:20 44.98818 10.72316 30875 ft 534 kts 106°
2026-04-21 09:20 44.97747 10.77284 30933 ft 535 kts 106°
2026-04-21 09:20 44.95576 10.87369 30992 ft 539 kts 105°
2026-04-21 09:21 44.93612 10.97625 30988 ft 540 kts 103°
2026-04-21 09:21 44.91725 11.07933 30998 ft 541 kts 103°
2026-04-21 09:22 44.89800 11.18170 30995 ft 541 kts 104°
2026-04-21 09:22 44.87841 11.28376 31013 ft 539 kts 104°
2026-04-21 09:23 44.85883 11.38516 31008 ft 537 kts 104°
2026-04-21 09:23 44.83914 11.48683 31010 ft 536 kts 104°
2026-04-21 09:24 44.81943 11.58822 30984 ft 535 kts 104°
2026-04-21 09:24 44.79559 11.68690 30996 ft 535 kts 111°
2026-04-21 09:25 44.76813 11.78453 31005 ft 535 kts 111°
2026-04-21 09:25 44.74056 11.88234 30989 ft 536 kts 111°
2026-04-21 09:26 44.71339 11.97975 31001 ft 536 kts 111°
2026-04-21 09:26 44.68612 12.07768 30992 ft 537 kts 111°
2026-04-21 09:27 44.65893 12.17495 30993 ft 537 kts 111°
2026-04-21 09:27 44.63151 12.27256 31001 ft 536 kts 111°
2026-04-21 09:28 44.60413 12.36960 30995 ft 536 kts 111°
2026-04-21 09:28 44.57666 12.46657 30987 ft 536 kts 111°
2026-04-21 09:29 44.54901 12.56381 31000 ft 535 kts 111°
2026-04-21 09:29 44.52128 12.66092 30996 ft 535 kts 111°
2026-04-21 09:30 44.49371 12.75712 30988 ft 535 kts 111°
2026-04-21 09:30 44.46581 12.85408 30991 ft 535 kts 112°
2026-04-21 09:31 44.43804 12.95024 30992 ft 535 kts 112°
2026-04-21 09:31 44.41002 13.04687 31008 ft 534 kts 112°
2026-04-21 09:32 44.38197 13.14325 30989 ft 534 kts 112°
2026-04-21 09:32 44.35398 13.23903 30986 ft 534 kts 112°
2026-04-21 09:33 44.32571 13.33540 30991 ft 534 kts 112°
2026-04-21 09:33 44.29765 13.43074 30987 ft 534 kts 112°
2026-04-21 09:34 44.26925 13.52684 30987 ft 533 kts 112°
2026-04-21 09:34 44.24104 13.62199 30987 ft 533 kts 112°
2026-04-21 09:35 44.21086 13.71635 30982 ft 532 kts 119°
2026-04-21 09:35 44.17442 13.80628 30982 ft 532 kts 121°
2026-04-21 09:36 44.13752 13.89577 31001 ft 531 kts 121°
2026-04-21 09:36 44.10118 13.98459 30993 ft 531 kts 120°
2026-04-21 09:37 44.06474 14.07412 30980 ft 530 kts 120°
2026-04-21 09:37 44.02836 14.16338 30978 ft 530 kts 120°
2026-04-21 09:38 43.99212 14.25195 31001 ft 529 kts 121°
2026-04-21 09:38 43.95557 14.34097 30993 ft 530 kts 121°
2026-04-21 09:39 43.92515 14.41484 30986 ft 529 kts 121°
2026-04-21 09:39 43.88852 14.50349 30982 ft 528 kts 121°
2026-04-21 09:40 43.85219 14.59117 30986 ft 526 kts 121°
2026-04-21 09:40 43.81561 14.67918 30988 ft 525 kts 121°
2026-04-21 09:41 43.77924 14.76645 30982 ft 525 kts 121°
2026-04-21 09:41 43.74260 14.85406 30987 ft 525 kts 121°
2026-04-21 09:42 43.70610 14.94107 30981 ft 525 kts 121°
2026-04-21 09:42 43.66931 15.02854 30982 ft 526 kts 121°
2026-04-21 09:43 43.63236 15.11609 30975 ft 526 kts 121°
2026-04-21 09:43 43.59569 15.20275 30980 ft 526 kts 122°
2026-04-21 09:44 43.55865 15.29000 30969 ft 526 kts 122°
2026-04-21 09:44 43.52148 15.37728 30973 ft 526 kts 122°
2026-04-21 09:45 43.48458 15.46369 30975 ft 526 kts 122°
2026-04-21 09:45 43.44732 15.55066 30979 ft 526 kts 122°
2026-04-21 09:46 43.41014 15.63720 30972 ft 526 kts 122°
2026-04-21 09:46 43.37282 15.72379 30968 ft 526 kts 122°
2026-04-21 09:47 43.33531 15.81057 30968 ft 526 kts 122°
2026-04-21 09:47 43.29812 15.89637 30965 ft 526 kts 122°
2026-04-21 09:48 43.26051 15.98288 30979 ft 527 kts 122°
2026-04-21 09:48 43.22279 16.06935 30960 ft 528 kts 122°
2026-04-21 09:49 43.18516 16.15539 30959 ft 527 kts 122°
2026-04-21 09:49 43.14759 16.24103 30966 ft 527 kts 122°
2026-04-21 09:50 43.11599 16.31288 30955 ft 527 kts 122°
2026-04-21 09:50 43.07190 16.41282 30962 ft 527 kts 122°
2026-04-21 09:51 43.03390 16.49870 30961 ft 527 kts 122°
2026-04-21 09:51 42.99575 16.58465 30962 ft 527 kts 122°
2026-04-21 09:52 42.95787 16.66975 30964 ft 527 kts 123°
2026-04-21 09:52 42.91957 16.75555 30962 ft 528 kts 123°
2026-04-21 09:53 42.88148 16.84062 30958 ft 527 kts 123°
2026-04-21 09:53 42.84315 16.92599 30957 ft 527 kts 123°
2026-04-21 09:54 42.80501 17.01068 30960 ft 526 kts 123°
2026-04-21 09:54 42.76662 17.09569 30963 ft 525 kts 123°
2026-04-21 09:55 42.72850 17.17986 30963 ft 524 kts 123°
2026-04-21 09:55 42.69010 17.26441 30961 ft 523 kts 123°
2026-04-21 09:56 42.65194 17.34821 30959 ft 523 kts 123°
2026-04-21 09:56 42.61357 17.43222 30958 ft 522 kts 123°
2026-04-21 09:57 42.57517 17.51610 30954 ft 522 kts 123°
2026-04-21 09:57 42.53641 17.59884 30946 ft 521 kts 127°
2026-04-21 09:58 42.49309 17.67721 30951 ft 520 kts 129°
2026-04-21 09:58 42.44898 17.75546 30949 ft 520 kts 129°
2026-04-21 09:59 42.40538 17.83326 30947 ft 521 kts 129°
2026-04-21 09:59 42.36153 17.91176 30950 ft 521 kts 129°
2026-04-21 10:00 42.31805 17.98949 30944 ft 521 kts 129°
2026-04-21 10:00 42.27402 18.06795 30943 ft 521 kts 129°
2026-04-21 10:01 42.23044 18.14535 30944 ft 521 kts 129°
2026-04-21 10:01 42.18647 18.22326 30935 ft 521 kts 129°
2026-04-21 10:02 42.12058 18.33965 30938 ft 520 kts 129°
2026-04-21 10:03 42.07677 18.41680 30944 ft 520 kts 129°
2026-04-21 10:03 42.03254 18.49419 31012 ft 525 kts 131°
2026-04-21 10:03 42.00829 18.53109 31284 ft 525 kts 137°
2026-04-21 10:04 41.98177 18.56466 31707 ft 520 kts 143°
2026-04-21 10:04 41.95420 18.59490 32132 ft 517 kts 144°
2026-04-21 10:04 41.92613 18.62529 32511 ft 517 kts 144°
2026-04-21 10:04 41.89787 18.65587 32805 ft 518 kts 144°
2026-04-21 10:05 41.86969 18.68646 32903 ft 521 kts 144°
2026-04-21 10:05 41.81383 18.74758 32949 ft 519 kts 144°
2026-04-21 10:06 41.75814 18.80876 32953 ft 516 kts 144°
2026-04-21 10:06 41.70256 18.86970 32964 ft 515 kts 144°
2026-04-21 10:07 41.64739 18.93001 32961 ft 516 kts 144°
2026-04-21 10:07 41.59164 18.99078 32965 ft 516 kts 144°
2026-04-21 10:08 41.53606 19.05122 32962 ft 517 kts 144°
2026-04-21 10:08 41.48006 19.11199 32961 ft 518 kts 144°
2026-04-21 10:09 41.42416 19.17251 32986 ft 519 kts 144°
2026-04-21 10:09 41.36788 19.23331 32980 ft 520 kts 144°
2026-04-21 10:10 41.31175 19.29380 32950 ft 521 kts 144°
2026-04-21 10:10 41.25537 19.35444 32977 ft 520 kts 144°
2026-04-21 10:11 41.19951 19.41437 32971 ft 519 kts 144°
2026-04-21 10:11 41.14315 19.47470 32967 ft 518 kts 144°
2026-04-21 10:12 41.08717 19.53448 32971 ft 518 kts 144°
2026-04-21 10:12 41.03087 19.59446 32961 ft 518 kts 144°
2026-04-21 10:13 40.97495 19.65391 32971 ft 519 kts 144°
2026-04-21 10:13 40.91838 19.71393 32965 ft 519 kts 144°
2026-04-21 10:14 40.86185 19.77376 32964 ft 519 kts 144°
2026-04-21 10:14 40.80557 19.83319 32976 ft 519 kts 144°
2026-04-21 10:15 40.74931 19.89247 32971 ft 520 kts 144°
2026-04-21 10:15 40.69269 19.95200 32972 ft 519 kts 144°
2026-04-21 10:16 40.63608 20.01136 32999 ft 521 kts 144°
2026-04-21 10:16 40.57931 20.07078 32972 ft 521 kts 144°
2026-04-21 10:17 40.52293 20.12968 32979 ft 519 kts 144°
2026-04-21 10:17 40.46620 20.18879 32964 ft 520 kts 144°
2026-04-21 10:18 40.40953 20.24771 32971 ft 518 kts 144°
2026-04-21 10:18 40.35304 20.30631 32976 ft 516 kts 144°
2026-04-21 10:19 40.29676 20.36457 32993 ft 515 kts 144°
2026-04-21 10:19 40.24077 20.42241 32983 ft 515 kts 144°
2026-04-21 10:20 40.18435 20.48055 32985 ft 515 kts 144°
2026-04-21 10:20 40.12817 20.53835 33000 ft 516 kts 144°
2026-04-21 10:21 40.07158 20.59643 32995 ft 516 kts 145°
2026-04-21 10:21 40.01429 20.65291 33001 ft 516 kts 146°
2026-04-21 10:22 39.95662 20.70804 32997 ft 516 kts 146°
2026-04-21 10:22 39.89864 20.76349 33008 ft 516 kts 146°
2026-04-21 10:23 39.84086 20.81899 33023 ft 516 kts 146°
2026-04-21 10:23 39.78306 20.87451 33019 ft 516 kts 146°
2026-04-21 10:24 39.72530 20.92990 33023 ft 516 kts 146°
2026-04-21 10:24 39.67725 20.97588 33013 ft 515 kts 146°
2026-04-21 10:25 39.61002 21.04006 33020 ft 514 kts 146°
2026-04-21 10:25 39.56202 21.08577 33001 ft 515 kts 146°
2026-04-21 10:26 39.50420 21.14073 32995 ft 515 kts 146°
2026-04-21 10:26 39.44634 21.19563 32988 ft 515 kts 146°
2026-04-21 10:27 39.38843 21.25044 33004 ft 515 kts 146°
2026-04-21 10:27 39.33053 21.30513 33009 ft 514 kts 146°
2026-04-21 10:28 39.27267 21.35967 33001 ft 515 kts 146°
2026-04-21 10:28 39.21509 21.41384 33008 ft 515 kts 146°
2026-04-21 10:29 39.15734 21.46804 32999 ft 515 kts 146°
2026-04-21 10:29 39.09922 21.52249 32982 ft 515 kts 147°
2026-04-21 10:30 39.04108 21.57686 32980 ft 515 kts 147°
2026-04-21 10:30 38.98313 21.63093 32987 ft 514 kts 147°
2026-04-21 10:31 38.92542 21.68464 32998 ft 514 kts 147°
2026-04-21 10:31 38.86739 21.73854 32977 ft 514 kts 147°
2026-04-21 10:32 38.80941 21.79229 32980 ft 514 kts 147°
2026-04-21 10:32 38.75149 21.84588 32989 ft 515 kts 147°
2026-04-21 10:33 38.69321 21.89970 32970 ft 516 kts 147°
2026-04-21 10:33 38.63488 21.95346 32979 ft 516 kts 147°
2026-04-21 10:34 38.57692 22.00676 32982 ft 517 kts 147°
2026-04-21 10:34 38.51842 22.06042 32979 ft 517 kts 147°
2026-04-21 10:35 38.45982 22.11410 32983 ft 518 kts 147°
2026-04-21 10:35 38.40122 22.16767 32980 ft 518 kts 147°
2026-04-21 10:36 38.34259 22.22113 32985 ft 518 kts 147°
2026-04-21 10:36 38.28423 22.27427 32979 ft 518 kts 147°
2026-04-21 10:37 38.22549 22.32764 32977 ft 518 kts 147°
2026-04-21 10:37 38.16661 22.38101 32974 ft 518 kts 147°
2026-04-21 10:38 38.10814 22.43391 32974 ft 518 kts 148°
2026-04-21 10:38 38.04926 22.48707 32985 ft 518 kts 148°
2026-04-21 10:39 37.99073 22.53982 32978 ft 518 kts 148°
2026-04-21 10:39 37.93188 22.59274 32973 ft 518 kts 148°
2026-04-21 10:40 37.87296 22.64563 32971 ft 517 kts 148°
2026-04-21 10:40 37.81455 22.69794 32958 ft 518 kts 148°
2026-04-21 10:41 37.75571 22.75054 32970 ft 517 kts 148°
2026-04-21 10:41 37.69677 22.80313 32958 ft 517 kts 148°
2026-04-21 10:42 37.63794 22.85552 32961 ft 517 kts 148°
2026-04-21 10:42 37.57909 22.90782 32959 ft 517 kts 148°
2026-04-21 10:43 37.52056 22.95973 32961 ft 516 kts 148°
2026-04-21 10:43 37.46174 23.01180 32985 ft 516 kts 148°
2026-04-21 10:44 37.40289 23.06379 32986 ft 516 kts 148°
2026-04-21 10:44 37.34437 23.11541 32982 ft 516 kts 148°
2026-04-21 10:45 37.28537 23.16733 32990 ft 516 kts 148°
2026-04-21 10:45 37.22681 23.21879 32983 ft 516 kts 148°
2026-04-21 10:46 37.16653 23.26727 32971 ft 511 kts 158°
2026-04-21 10:46 37.10018 23.29743 32989 ft 503 kts 171°
2026-04-21 10:47 37.03159 23.31353 32990 ft 499 kts 176°
2026-04-21 10:47 36.96267 23.32617 32989 ft 500 kts 176°
2026-04-21 10:48 36.89417 23.33994 32987 ft 502 kts 175°
2026-04-21 10:48 36.82516 23.35446 32991 ft 502 kts 175°
2026-04-21 10:49 36.75616 23.36885 32994 ft 503 kts 175°
2026-04-21 10:49 36.68684 23.38326 32997 ft 503 kts 175°
2026-04-21 10:50 36.61820 23.39753 32997 ft 503 kts 175°
2026-04-21 10:50 36.54908 23.41187 33001 ft 503 kts 175°
2026-04-21 10:51 36.48026 23.42613 33004 ft 503 kts 175°
2026-04-21 10:51 36.41094 23.44046 33006 ft 503 kts 175°
2026-04-21 10:52 36.34216 23.45465 33011 ft 503 kts 175°
2026-04-21 10:52 36.27306 23.46889 33015 ft 503 kts 175°
2026-04-21 10:53 36.20439 23.48291 33021 ft 503 kts 175°
2026-04-21 10:53 36.13525 23.49690 33024 ft 503 kts 175°
2026-04-21 10:54 36.06594 23.51101 33021 ft 503 kts 175°
2026-04-21 10:54 35.99704 23.52514 33034 ft 504 kts 175°
2026-04-21 10:55 35.92779 23.53932 33028 ft 504 kts 175°
2026-04-21 10:55 35.85822 23.55352 33036 ft 504 kts 175°
2026-04-21 10:56 35.78932 23.56755 33041 ft 504 kts 175°
2026-04-21 10:56 35.71998 23.58165 33045 ft 504 kts 175°
2026-04-21 10:57 35.65092 23.59567 33042 ft 504 kts 175°
2026-04-21 10:57 35.58158 23.60973 33054 ft 505 kts 175°
2026-04-21 10:58 35.51259 23.62367 33045 ft 505 kts 175°
2026-04-21 10:58 35.44323 23.63768 33043 ft 505 kts 175°
2026-04-21 10:59 35.37383 23.65167 33047 ft 505 kts 175°
2026-04-21 10:59 35.30433 23.66568 33045 ft 504 kts 175°
2026-04-21 11:00 35.23602 23.68335 33034 ft 509 kts 166°
2026-04-21 11:00 35.17018 23.71612 33055 ft 514 kts 155°
2026-04-21 11:01 35.10689 23.75697 33051 ft 514 kts 155°
2026-04-21 11:01 35.04392 23.79768 33054 ft 514 kts 155°
2026-04-21 11:02 34.94899 23.85801 33053 ft 513 kts 156°
2026-04-21 11:02 34.88539 23.89811 33061 ft 514 kts 156°
2026-04-21 11:03 34.82151 23.93834 33056 ft 515 kts 156°
2026-04-21 11:03 34.75818 23.97818 33056 ft 515 kts 156°
2026-04-21 11:04 34.69449 24.01819 33055 ft 515 kts 156°
2026-04-21 11:04 34.63079 24.05814 33057 ft 514 kts 156°
2026-04-21 11:05 34.56765 24.09766 33058 ft 513 kts 156°
2026-04-21 11:05 34.50422 24.13729 33057 ft 512 kts 156°
2026-04-21 11:06 34.45147 24.17020 33059 ft 512 kts 156°
2026-04-21 11:06 34.38804 24.20971 33059 ft 511 kts 156°
2026-04-21 11:07 34.32464 24.24914 33065 ft 511 kts 156°
2026-04-21 11:07 34.26160 24.28827 33063 ft 511 kts 156°
2026-04-21 11:08 34.19813 24.32760 33063 ft 511 kts 156°
2026-04-21 11:08 34.13524 24.36652 33057 ft 511 kts 156°
2026-04-21 11:09 34.07175 24.40575 33065 ft 511 kts 156°
2026-04-21 11:09 34.00918 24.44664 33069 ft 514 kts 150°
2026-04-21 11:10 33.95273 24.49896 33071 ft 517 kts 140°
2026-04-21 11:10 33.89925 24.55741 33071 ft 518 kts 140°
2026-04-21 11:11 33.84569 24.61574 33068 ft 518 kts 140°
2026-04-21 11:11 33.79217 24.67338 33070 ft 518 kts 141°
2026-04-21 11:12 33.73824 24.73108 33072 ft 518 kts 141°
2026-04-21 11:12 33.68457 24.78837 33071 ft 518 kts 141°
2026-04-21 11:13 33.63068 24.84583 33076 ft 518 kts 141°
2026-04-21 11:13 33.57670 24.90331 33073 ft 518 kts 141°
2026-04-21 11:14 33.52278 24.96063 33075 ft 518 kts 141°
2026-04-21 11:14 33.46900 25.01770 33071 ft 517 kts 141°
2026-04-21 11:15 33.41494 25.07497 33074 ft 517 kts 142°
2026-04-21 11:15 33.36127 25.13173 33065 ft 517 kts 142°
2026-04-21 11:16 33.30721 25.18879 33067 ft 517 kts 142°
2026-04-21 11:16 33.25320 25.24571 33080 ft 517 kts 142°
2026-04-21 11:17 33.19934 25.30237 33077 ft 517 kts 142°
2026-04-21 11:17 33.14522 25.35921 33077 ft 518 kts 142°
2026-04-21 11:18 33.09099 25.41607 33079 ft 518 kts 142°
2026-04-21 11:18 33.03710 25.47248 33079 ft 518 kts 142°
2026-04-21 11:19 32.98278 25.52924 33078 ft 518 kts 142°
2026-04-21 11:19 32.92881 25.58554 33080 ft 518 kts 142°
2026-04-21 11:20 32.87444 25.64215 33088 ft 518 kts 143°
2026-04-21 11:20 32.82007 25.69868 33082 ft 518 kts 143°
2026-04-21 11:21 32.76585 25.75494 33077 ft 518 kts 143°
2026-04-21 11:21 32.71175 25.81100 33073 ft 518 kts 143°
2026-04-21 11:22 32.65728 25.86735 33089 ft 518 kts 143°
2026-04-21 11:22 32.60283 25.92357 33079 ft 518 kts 143°
2026-04-21 11:23 32.54869 25.97939 33087 ft 517 kts 143°
2026-04-21 11:23 32.49448 26.03519 33087 ft 517 kts 143°
2026-04-21 11:24 32.43999 26.09116 33084 ft 517 kts 143°
2026-04-21 11:24 32.38551 26.14705 33081 ft 517 kts 143°
2026-04-21 11:25 32.33152 26.20235 33086 ft 517 kts 143°
2026-04-21 11:25 32.27697 26.25811 33082 ft 517 kts 143°
2026-04-21 11:26 32.22237 26.31384 33087 ft 517 kts 143°
2026-04-21 11:26 32.16824 26.36901 33086 ft 517 kts 143°
2026-04-21 11:27 32.11360 26.42460 33089 ft 517 kts 143°
2026-04-21 11:27 32.05895 26.48011 33081 ft 518 kts 143°
2026-04-21 11:28 32.00461 26.53521 33084 ft 518 kts 143°
2026-04-21 11:28 31.94992 26.59058 33084 ft 517 kts 143°
2026-04-21 11:29 31.89546 26.64563 33096 ft 518 kts 143°
2026-04-21 11:29 31.84073 26.70086 33096 ft 518 kts 143°
2026-04-21 11:30 31.78591 26.75609 33091 ft 518 kts 143°
2026-04-21 11:30 31.73149 26.81083 33107 ft 518 kts 144°
2026-04-21 11:31 31.67665 26.86590 33109 ft 518 kts 144°
2026-04-21 11:31 31.62183 26.92087 33101 ft 518 kts 144°
2026-04-21 11:32 31.56697 26.97580 33109 ft 517 kts 144°
2026-04-21 11:32 31.51237 27.03037 33114 ft 517 kts 144°
2026-04-21 11:33 31.45752 27.08511 33123 ft 517 kts 144°
2026-04-21 11:33 31.40263 27.13981 33127 ft 517 kts 144°
2026-04-21 11:34 31.34811 27.19437 33130 ft 518 kts 141°
2026-04-21 11:34 31.29919 27.25652 33127 ft 525 kts 130°
2026-04-21 11:35 31.25803 27.32747 33138 ft 527 kts 126°
2026-04-21 11:35 31.21753 27.39898 33118 ft 527 kts 127°
2026-04-21 11:36 31.17642 27.47007 33119 ft 527 kts 127°
2026-04-21 11:36 31.13542 27.54052 33107 ft 527 kts 127°
2026-04-21 11:37 31.09363 27.61125 33100 ft 527 kts 128°
2026-04-21 11:37 31.05181 27.68098 33101 ft 526 kts 128°
2026-04-21 11:38 31.00965 27.75123 33099 ft 526 kts 128°
2026-04-21 11:38 30.96794 27.82081 33097 ft 526 kts 128°
2026-04-21 11:39 30.92611 27.89054 33093 ft 526 kts 128°
2026-04-21 11:39 30.88409 27.96047 33089 ft 527 kts 128°
2026-04-21 11:40 30.84191 28.03052 33091 ft 527 kts 128°
2026-04-21 11:40 30.80000 28.10001 33039 ft 526 kts 129°
2026-04-21 11:41 30.75786 28.16973 33082 ft 526 kts 129°
2026-04-21 11:41 30.71571 28.23936 33079 ft 526 kts 129°
2026-04-21 11:42 30.67370 28.30863 33080 ft 527 kts 129°
2026-04-21 11:42 30.63145 28.37819 33068 ft 527 kts 129°
2026-04-21 11:43 30.58897 28.44800 33089 ft 527 kts 129°
2026-04-21 11:43 30.54683 28.51712 33079 ft 528 kts 129°
2026-04-21 11:44 30.50430 28.58678 33082 ft 528 kts 129°
2026-04-21 11:44 30.46204 28.65585 33069 ft 528 kts 129°
2026-04-21 11:45 30.41950 28.72528 33066 ft 528 kts 129°
2026-04-21 11:45 30.37678 28.79489 33064 ft 529 kts 129°
2026-04-21 11:46 30.33404 28.86439 33057 ft 529 kts 129°
2026-04-21 11:46 30.29150 28.93346 33054 ft 529 kts 129°
2026-04-21 11:47 30.24856 29.00307 33060 ft 529 kts 130°
2026-04-21 11:47 30.20586 29.07219 33054 ft 530 kts 130°
2026-04-21 11:48 30.16287 29.14159 33049 ft 530 kts 130°
2026-04-21 11:48 30.12004 29.21059 33058 ft 531 kts 130°
2026-04-21 11:49 30.07752 29.28065 33049 ft 532 kts 129°
2026-04-21 11:49 30.03561 29.35051 33047 ft 532 kts 129°
2026-04-21 11:50 29.99322 29.42090 33057 ft 533 kts 129°
2026-04-21 11:50 29.95069 29.49118 33055 ft 533 kts 129°
2026-04-21 11:51 29.91548 29.54919 33057 ft 534 kts 129°
2026-04-21 11:51 29.86579 29.63094 33058 ft 534 kts 130°
2026-04-21 11:52 29.82993 29.68985 33061 ft 535 kts 130°
2026-04-21 11:52 29.78724 29.75988 33058 ft 535 kts 130°
2026-04-21 11:53 29.74458 29.82975 33060 ft 536 kts 130°
2026-04-21 11:53 29.70155 29.90009 33062 ft 536 kts 130°
2026-04-21 11:54 29.65876 29.96992 33061 ft 536 kts 130°
2026-04-21 11:54 29.61566 30.04014 33064 ft 537 kts 130°
2026-04-21 11:55 29.57242 30.11045 33069 ft 537 kts 130°
2026-04-21 11:55 29.52941 30.18030 33063 ft 538 kts 130°
2026-04-21 11:56 29.48604 30.25060 33053 ft 538 kts 131°
2026-04-21 11:56 29.44227 30.32145 33484 ft 542 kts 131°
2026-04-21 11:57 29.42076 30.35624 33883 ft 541 kts 131°
2026-04-21 11:57 29.39848 30.39111 34267 ft 537 kts 135°
2026-04-21 11:57 29.37418 30.42341 34562 ft 531 kts 141°
2026-04-21 11:57 29.34844 30.45398 34813 ft 531 kts 141°
2026-04-21 11:58 29.32279 30.48393 34967 ft 533 kts 142°
2026-04-21 11:58 29.29663 30.51439 35010 ft 535 kts 142°
2026-04-21 11:58 29.24461 30.57558 35049 ft 532 kts 141°
2026-04-21 11:59 29.19381 30.63592 35059 ft 528 kts 141°
2026-04-21 11:59 29.14282 30.69648 35061 ft 527 kts 141°
2026-04-21 12:00 29.09184 30.75689 35068 ft 527 kts 141°
2026-04-21 12:00 29.04103 30.81696 35074 ft 528 kts 141°
2026-04-21 12:01 28.98983 30.87739 35071 ft 529 kts 141°
2026-04-21 12:01 28.93872 30.93766 35068 ft 530 kts 142°
2026-04-21 12:02 28.86158 31.02844 35073 ft 531 kts 142°
2026-04-21 12:03 28.80999 31.08905 35064 ft 532 kts 142°
2026-04-21 12:03 28.75844 31.14952 35060 ft 533 kts 142°
2026-04-21 12:04 28.70660 31.21025 35077 ft 533 kts 142°
2026-04-21 12:04 28.65606 31.27164 35072 ft 536 kts 139°
2026-04-21 12:05 28.60656 31.33488 35072 ft 536 kts 139°
2026-04-21 12:05 28.55674 31.39840 35069 ft 536 kts 139°
2026-04-21 12:06 28.50668 31.46150 35069 ft 536 kts 140°
2026-04-21 12:06 28.45686 31.52394 35069 ft 535 kts 140°
2026-04-21 12:07 28.40665 31.58678 35064 ft 535 kts 140°
2026-04-21 12:07 28.35652 31.64947 35058 ft 535 kts 140°
2026-04-21 12:08 28.30663 31.71180 35050 ft 535 kts 140°
2026-04-21 12:08 28.25644 31.77441 35047 ft 535 kts 140°
2026-04-21 12:09 28.20648 31.83662 35052 ft 535 kts 140°
2026-04-21 12:09 28.15623 31.89910 35045 ft 536 kts 140°
2026-04-21 12:10 28.10614 31.96133 35038 ft 536 kts 140°
2026-04-21 12:10 28.05592 32.02393 35032 ft 538 kts 137°
2026-04-21 12:11 28.01179 32.09311 35026 ft 549 kts 125°
2026-04-21 12:11 27.97519 32.16960 35012 ft 552 kts 123°
2026-04-21 12:12 27.93911 32.24632 34993 ft 552 kts 123°
2026-04-21 12:12 27.90281 32.32222 34976 ft 551 kts 124°
2026-04-21 12:13 27.86594 32.39839 34964 ft 551 kts 124°
2026-04-21 12:13 27.82923 32.47398 34952 ft 551 kts 124°
2026-04-21 12:14 27.79218 32.55022 34945 ft 551 kts 124°
2026-04-21 12:14 27.75548 32.62567 34949 ft 550 kts 124°
2026-04-21 12:15 27.71854 32.70146 34949 ft 550 kts 124°
2026-04-21 12:15 27.68151 32.77731 34942 ft 551 kts 124°
2026-04-21 12:16 27.64473 32.85252 34942 ft 550 kts 124°
2026-04-21 12:16 27.60761 32.92827 34938 ft 550 kts 124°
2026-04-21 12:17 27.57050 33.00386 34940 ft 550 kts 124°
2026-04-21 12:17 27.53352 33.07910 34940 ft 550 kts 124°
2026-04-21 12:18 27.49632 33.15464 34943 ft 550 kts 124°
2026-04-21 12:18 27.45938 33.22951 34943 ft 550 kts 124°
2026-04-21 12:19 27.42212 33.30490 34958 ft 550 kts 124°
2026-04-21 12:19 27.38478 33.38035 34959 ft 550 kts 124°
2026-04-21 12:20 27.34758 33.45535 34953 ft 551 kts 124°
2026-04-21 12:20 27.31014 33.53076 34948 ft 551 kts 124°
2026-04-21 12:21 27.27296 33.60554 34948 ft 551 kts 124°
2026-04-21 12:21 27.23550 33.68077 34939 ft 550 kts 124°
2026-04-21 12:22 27.19806 33.75583 34938 ft 550 kts 124°
2026-04-21 12:22 27.16376 33.83246 34943 ft 555 kts 116°
2026-04-21 12:23 27.13546 33.91335 34935 ft 556 kts 115°
2026-04-21 12:23 27.10730 33.99444 34942 ft 556 kts 116°
2026-04-21 12:24 27.07855 34.07519 34944 ft 556 kts 116°
2026-04-21 12:24 27.04980 34.15526 34940 ft 556 kts 116°
2026-04-21 12:25 27.02090 34.23582 34934 ft 556 kts 116°
2026-04-21 12:25 26.99209 34.31617 34931 ft 557 kts 116°
2026-04-21 12:26 26.96314 34.39691 34928 ft 557 kts 116°
2026-04-21 12:26 26.93432 34.47713 34920 ft 557 kts 116°
2026-04-21 12:27 26.90531 34.55770 34923 ft 557 kts 116°
2026-04-21 12:27 26.87621 34.63830 34918 ft 557 kts 116°
2026-04-21 12:28 26.84717 34.71861 34913 ft 557 kts 116°
2026-04-21 12:28 26.81817 34.79863 34908 ft 557 kts 116°
2026-04-21 12:29 26.78895 34.87914 34906 ft 557 kts 116°
2026-04-21 12:29 26.75978 34.95927 34902 ft 557 kts 116°
2026-04-21 12:30 26.73038 35.03956 34901 ft 557 kts 117°
2026-04-21 12:30 26.70086 35.11995 34896 ft 557 kts 117°
2026-04-21 12:31 26.67157 35.19965 34897 ft 557 kts 117°
2026-04-21 12:31 26.64203 35.27990 34896 ft 557 kts 117°
2026-04-21 12:32 26.61241 35.36017 34892 ft 557 kts 117°
2026-04-21 12:32 26.58293 35.43994 34891 ft 557 kts 117°
2026-04-21 12:33 26.55311 35.52005 34890 ft 557 kts 117°
2026-04-21 12:33 26.52275 35.59940 34886 ft 558 kts 118°
2026-04-21 12:34 26.49720 35.66571 34884 ft 558 kts 118°
2026-04-21 12:34 26.46156 35.75839 34888 ft 558 kts 117°
2026-04-21 12:35 26.43604 35.82482 34874 ft 559 kts 117°
2026-04-21 12:35 26.40532 35.90468 34885 ft 559 kts 117°
2026-04-21 12:36 26.37458 35.98442 34875 ft 559 kts 118°
2026-04-21 12:36 26.34394 36.06371 34873 ft 559 kts 118°
2026-04-21 12:37 26.31323 36.14302 34874 ft 558 kts 118°
2026-04-21 12:37 26.28234 36.22265 34878 ft 558 kts 118°
2026-04-21 12:38 26.25167 36.30156 34877 ft 558 kts 118°
2026-04-21 12:38 26.22075 36.38099 34880 ft 558 kts 118°
2026-04-21 12:39 26.18995 36.45995 34884 ft 558 kts 118°
2026-04-21 12:39 26.15589 36.53736 34888 ft 553 kts 124°
2026-04-21 12:40 26.11855 36.61223 34885 ft 553 kts 124°
2026-04-21 12:40 26.08120 36.68685 34873 ft 554 kts 124°
2026-04-21 12:41 26.04401 36.76199 34872 ft 555 kts 124°
2026-04-21 12:41 26.00687 36.83733 34864 ft 555 kts 124°
2026-04-21 12:42 25.96964 36.91267 34866 ft 555 kts 124°
2026-04-21 12:42 25.93254 36.98752 34865 ft 556 kts 124°
2026-04-21 12:43 25.89532 37.06250 34862 ft 556 kts 124°
2026-04-21 12:43 25.85792 37.13773 34863 ft 556 kts 124°
2026-04-21 12:44 25.82037 37.21313 34858 ft 556 kts 124°
2026-04-21 12:44 25.78315 37.28781 34857 ft 555 kts 124°
2026-04-21 12:45 25.74572 37.36293 34866 ft 555 kts 124°
2026-04-21 12:45 25.70845 37.43771 34865 ft 555 kts 124°
2026-04-21 12:46 25.67115 37.51240 34859 ft 556 kts 124°
2026-04-21 12:46 25.63352 37.58759 34860 ft 556 kts 124°
2026-04-21 12:47 25.59617 37.66212 34863 ft 556 kts 124°
2026-04-21 12:47 25.55848 37.73723 34858 ft 557 kts 124°
2026-04-21 12:48 25.52088 37.81198 34846 ft 557 kts 124°
2026-04-21 12:48 25.48295 37.88729 34846 ft 557 kts 124°
2026-04-21 12:49 25.44523 37.96205 34851 ft 558 kts 124°
2026-04-21 12:49 25.40729 38.03712 34846 ft 559 kts 124°
2026-04-21 12:50 25.36944 38.11194 34851 ft 561 kts 124°
2026-04-21 12:50 25.33113 38.18754 34837 ft 563 kts 124°
2026-04-21 12:51 25.29274 38.26312 34841 ft 562 kts 124°
2026-04-21 12:51 25.25459 38.33817 34843 ft 561 kts 124°
2026-04-21 12:52 25.21624 38.41347 34842 ft 560 kts 124°
2026-04-21 12:52 25.17795 38.48854 34854 ft 560 kts 124°
2026-04-21 12:53 25.13961 38.56357 34849 ft 560 kts 124°
2026-04-21 12:53 25.10140 38.63825 34877 ft 563 kts 125°
2026-04-21 12:54 25.06264 38.71391 34879 ft 565 kts 124°
2026-04-21 12:54 25.02412 38.78906 34876 ft 566 kts 124°
2026-04-21 12:55 24.98525 38.86477 34873 ft 565 kts 125°
2026-04-21 12:55 24.94653 38.93995 34882 ft 563 kts 125°
2026-04-21 12:56 24.90766 39.01481 34890 ft 562 kts 125°
2026-04-21 12:56 24.86903 39.08906 34886 ft 561 kts 125°
2026-04-21 12:57 24.83024 39.16363 34892 ft 561 kts 125°
2026-04-21 12:57 24.79133 39.23831 34897 ft 561 kts 125°
2026-04-21 12:58 24.75267 39.31241 34900 ft 562 kts 126°
2026-04-21 12:58 24.71375 39.38692 34910 ft 562 kts 125°
2026-04-21 12:59 24.67469 39.46165 34913 ft 562 kts 125°
2026-04-21 12:59 24.63579 39.53587 34908 ft 563 kts 125°
2026-04-21 13:00 24.59666 39.61050 34921 ft 562 kts 125°
2026-04-21 13:00 24.56109 39.68760 34909 ft 570 kts 114°
2026-04-21 13:01 24.53952 39.77164 34910 ft 576 kts 101°
2026-04-21 13:01 24.53065 39.85956 34908 ft 578 kts 96°
2026-04-21 13:02 24.52343 39.94710 34902 ft 579 kts 96°
2026-04-21 13:02 24.51114 40.07921 34901 ft 579 kts 97°
2026-04-21 13:03 24.50245 40.16709 34900 ft 578 kts 97°
2026-04-21 13:03 24.49376 40.25496 34910 ft 578 kts 97°
2026-04-21 13:04 24.48508 40.34283 34902 ft 578 kts 97°
2026-04-21 13:04 24.47642 40.43012 34901 ft 577 kts 97°
2026-04-21 13:05 24.46766 40.51782 34893 ft 577 kts 97°
2026-04-21 13:05 24.45887 40.60542 34884 ft 577 kts 97°
2026-04-21 13:06 24.45010 40.69257 34894 ft 577 kts 97°
2026-04-21 13:06 24.44129 40.78024 34897 ft 577 kts 97°
2026-04-21 13:07 24.43247 40.86752 34890 ft 577 kts 97°
2026-04-21 13:07 24.42353 40.95540 34896 ft 578 kts 97°
2026-04-21 13:08 24.41459 41.04279 34893 ft 579 kts 97°
2026-04-21 13:08 24.40547 41.13079 34885 ft 579 kts 97°
2026-04-21 13:09 24.39619 41.21859 34894 ft 579 kts 97°
2026-04-21 13:09 24.38690 41.30592 34893 ft 580 kts 97°
2026-04-21 13:10 24.37752 41.39403 34879 ft 580 kts 97°
2026-04-21 13:10 24.36809 41.48210 34883 ft 580 kts 98°
2026-04-21 13:11 24.35870 41.56932 34883 ft 580 kts 98°
2026-04-21 13:11 24.34915 41.65761 34881 ft 580 kts 98°
2026-04-21 13:12 24.33958 41.74558 34877 ft 581 kts 98°
2026-04-21 13:12 24.32856 41.83278 34874 ft 580 kts 103°
2026-04-21 13:13 24.30767 41.91800 34879 ft 577 kts 109°
2026-04-21 13:13 24.28445 42.00241 34867 ft 578 kts 109°
2026-04-21 13:14 24.26162 42.08698 34867 ft 579 kts 109°
2026-04-21 13:14 24.23931 42.17130 34866 ft 579 kts 109°
2026-04-21 13:15 24.21682 42.25648 34867 ft 580 kts 109°
2026-04-21 13:15 24.19435 42.34122 34865 ft 581 kts 109°
2026-04-21 13:16 24.17164 42.42643 34868 ft 582 kts 109°
2026-04-21 13:16 24.14885 42.51172 34862 ft 582 kts 109°
2026-04-21 13:17 24.12621 42.59631 34869 ft 582 kts 109°
2026-04-21 13:17 24.10343 42.68122 34868 ft 582 kts 109°
2026-04-21 13:18 24.08050 42.76646 34871 ft 582 kts 109°
2026-04-21 13:18 24.06143 42.83723 34866 ft 582 kts 109°
2026-04-21 13:19 24.03477 42.93595 34870 ft 581 kts 109°
2026-04-21 13:19 24.01552 43.00710 34869 ft 581 kts 109°
2026-04-21 13:20 23.99270 43.09135 34871 ft 580 kts 109°
2026-04-21 13:20 23.96972 43.17603 34870 ft 579 kts 109°
2026-04-21 13:21 23.94687 43.25999 34869 ft 579 kts 109°
2026-04-21 13:21 23.92383 43.34442 34874 ft 579 kts 109°
2026-04-21 13:22 23.90073 43.42892 34867 ft 579 kts 109°
2026-04-21 13:22 23.87756 43.51347 34862 ft 580 kts 109°
2026-04-21 13:23 23.85448 43.59747 34855 ft 580 kts 109°
2026-04-21 13:23 23.83122 43.68196 34854 ft 579 kts 109°
2026-04-21 13:24 23.80810 43.76577 34846 ft 579 kts 109°
2026-04-21 13:24 23.78489 43.85010 34836 ft 579 kts 108°
2026-04-21 13:25 23.76906 43.93636 34830 ft 580 kts 96°
2026-04-21 13:25 23.76297 44.02417 34837 ft 579 kts 94°
2026-04-21 13:26 23.75733 44.11129 34837 ft 578 kts 94°
2026-04-21 13:26 23.75100 44.19889 34853 ft 577 kts 95°
2026-04-21 13:27 23.74431 44.28632 34851 ft 577 kts 95°
2026-04-21 13:27 23.73760 44.37315 34855 ft 576 kts 95°
2026-04-21 13:28 23.73086 44.46050 34859 ft 576 kts 95°
2026-04-21 13:28 23.72416 44.54711 34850 ft 575 kts 95°
2026-04-21 13:29 23.71738 44.63404 34852 ft 575 kts 95°
2026-04-21 13:29 23.71051 44.72138 34849 ft 574 kts 95°
2026-04-21 13:30 23.70368 44.80773 34849 ft 574 kts 95°
2026-04-21 13:30 23.69676 44.89451 34839 ft 573 kts 95°
2026-04-21 13:31 23.68975 44.98140 34842 ft 573 kts 95°
2026-04-21 13:31 23.68276 45.06740 34843 ft 573 kts 95°
2026-04-21 13:32 23.67568 45.15404 34834 ft 573 kts 95°
2026-04-21 13:32 23.66856 45.24062 34833 ft 572 kts 95°
2026-04-21 13:33 23.66146 45.32665 34831 ft 571 kts 95°
2026-04-21 13:33 23.65429 45.41301 34815 ft 571 kts 95°
2026-04-21 13:34 23.64708 45.49944 34813 ft 571 kts 95°
2026-04-21 13:34 23.63986 45.58530 34807 ft 571 kts 95°
2026-04-21 13:35 23.63256 45.67159 34810 ft 571 kts 95°
2026-04-21 13:35 23.62520 45.75804 34799 ft 572 kts 95°
2026-04-21 13:36 23.61782 45.84440 34796 ft 572 kts 95°
2026-04-21 13:36 23.61041 45.93047 34791 ft 573 kts 95°
2026-04-21 13:37 23.60289 46.01717 34798 ft 573 kts 95°
2026-04-21 13:37 23.59533 46.10382 34792 ft 574 kts 95°
2026-04-21 13:38 23.58777 46.19002 34804 ft 573 kts 95°
2026-04-21 13:38 23.58011 46.27666 34806 ft 573 kts 95°
2026-04-21 13:39 23.57239 46.36328 34792 ft 571 kts 95°
2026-04-21 13:39 23.56477 46.44873 34789 ft 569 kts 95°
2026-04-21 13:40 23.55706 46.53443 34784 ft 568 kts 95°
2026-04-21 13:40 23.54921 46.62017 34781 ft 568 kts 95°
2026-04-21 13:41 23.54126 46.70594 34789 ft 568 kts 95°
2026-04-21 13:41 23.53331 46.79131 34774 ft 569 kts 95°
2026-04-21 13:42 23.52527 46.87732 34778 ft 570 kts 95°
2026-04-21 13:42 23.51722 46.96296 34771 ft 572 kts 95°
2026-04-21 13:43 23.50907 47.04926 34763 ft 572 kts 95°
2026-04-21 13:43 23.50083 47.13586 34771 ft 573 kts 95°
2026-04-21 13:44 23.49255 47.22232 34763 ft 573 kts 95°
2026-04-21 13:44 23.48429 47.30814 34762 ft 573 kts 95°
2026-04-21 13:45 23.47591 47.39470 34764 ft 573 kts 95°
2026-04-21 13:45 23.46751 47.48106 34770 ft 572 kts 95°
2026-04-21 13:46 23.45914 47.56673 34769 ft 571 kts 95°
2026-04-21 13:46 23.45075 47.65289 34764 ft 571 kts 95°
2026-04-21 13:47 23.44238 47.73839 34762 ft 570 kts 95°
2026-04-21 13:47 23.43394 47.82410 34761 ft 570 kts 95°
2026-04-21 13:48 23.42540 47.91031 34757 ft 570 kts 95°
2026-04-21 13:48 23.41688 47.99574 34755 ft 570 kts 95°
2026-04-21 13:49 23.40829 48.08149 34760 ft 570 kts 95°
2026-04-21 13:49 23.39962 48.16749 34752 ft 570 kts 95°
2026-04-21 13:50 23.39093 48.25328 34759 ft 569 kts 95°
2026-04-21 13:50 23.38234 48.33853 34750 ft 568 kts 94°
2026-04-21 13:51 23.37784 48.42431 34761 ft 566 kts 90°
2026-04-21 13:51 23.37498 48.50964 34753 ft 566 kts 90°
2026-04-21 13:52 23.37188 48.59544 34755 ft 566 kts 90°
2026-04-21 13:52 23.36838 48.68114 34757 ft 565 kts 90°
2026-04-21 13:53 23.36478 48.76626 34757 ft 565 kts 90°
2026-04-21 13:53 23.36118 48.85140 34752 ft 565 kts 90°
2026-04-21 13:54 23.35754 48.93704 34764 ft 565 kts 90°
2026-04-21 13:54 23.35388 49.02203 34753 ft 565 kts 90°
2026-04-21 13:55 23.34708 49.10742 34759 ft 566 kts 97°
2026-04-21 13:55 23.33473 49.19194 34753 ft 566 kts 98°
2026-04-21 13:56 23.32182 49.27657 34765 ft 566 kts 98°
2026-04-21 13:56 23.30934 49.36083 34753 ft 566 kts 98°
2026-04-21 13:57 23.29703 49.44577 34762 ft 566 kts 97°
2026-04-21 13:57 23.28482 49.53012 34763 ft 566 kts 98°
2026-04-21 13:58 23.27247 49.61483 34763 ft 566 kts 98°
2026-04-21 13:58 23.26013 49.69896 34761 ft 565 kts 98°
2026-04-21 13:59 23.24768 49.78349 34765 ft 565 kts 98°
2026-04-21 13:59 23.23518 49.86800 34761 ft 565 kts 98°
2026-04-21 14:00 23.22270 49.95208 34760 ft 565 kts 98°
2026-04-21 14:00 23.21013 50.03650 34756 ft 564 kts 98°
2026-04-21 14:01 23.19764 50.12003 34759 ft 563 kts 98°
2026-04-21 14:01 23.18498 50.20440 34759 ft 562 kts 98°
2026-04-21 14:02 23.17242 50.28780 34759 ft 561 kts 98°
2026-04-21 14:03 23.15346 50.41307 34761 ft 560 kts 98°
2026-04-21 14:03 23.14076 50.49666 34769 ft 559 kts 98°
2026-04-21 14:04 23.12800 50.58028 34762 ft 559 kts 98°
2026-04-21 14:04 23.11529 50.66330 34763 ft 558 kts 98°
2026-04-21 14:05 23.10256 50.74611 34763 ft 558 kts 98°
2026-04-21 14:05 23.08972 50.82935 34763 ft 557 kts 98°
2026-04-21 14:06 23.07688 50.91233 34761 ft 556 kts 98°
2026-04-21 14:06 23.06408 50.99475 34761 ft 556 kts 98°
2026-04-21 14:07 23.05333 51.06371 34760 ft 555 kts 98°
2026-04-21 14:07 23.04039 51.14651 34757 ft 555 kts 98°
2026-04-21 14:08 23.02747 51.22886 34760 ft 555 kts 98°
2026-04-21 14:08 23.01444 51.31157 34757 ft 555 kts 98°
2026-04-21 14:09 23.00146 51.39376 34758 ft 554 kts 98°
2026-04-21 14:09 22.98835 51.47647 34759 ft 554 kts 98°
2026-04-21 14:10 22.97528 51.55863 34752 ft 554 kts 98°
2026-04-21 14:10 22.96209 51.64126 34751 ft 554 kts 98°
2026-04-21 14:11 22.94887 51.72377 34751 ft 554 kts 98°
2026-04-21 14:11 22.93571 51.80569 34744 ft 553 kts 98°
2026-04-21 14:12 22.92251 51.88751 34745 ft 553 kts 98°
2026-04-21 14:12 22.90920 51.96977 34740 ft 552 kts 98°
2026-04-21 14:13 22.89587 52.05190 34740 ft 552 kts 98°
2026-04-21 14:13 22.88260 52.13337 34736 ft 551 kts 98°
2026-04-21 14:14 22.86923 52.21518 34735 ft 551 kts 98°
2026-04-21 14:14 22.85580 52.29710 34732 ft 550 kts 98°
2026-04-21 14:15 22.84234 52.37890 34733 ft 550 kts 98°
2026-04-21 14:15 22.82892 52.46030 34731 ft 550 kts 98°
2026-04-21 14:16 22.82140 52.54245 34738 ft 546 kts 89°
2026-04-21 14:16 22.81985 52.62433 34731 ft 546 kts 88°
2026-04-21 14:17 22.81842 52.70664 34742 ft 546 kts 89°
2026-04-21 14:17 22.81647 52.78912 34741 ft 546 kts 89°
2026-04-21 14:18 22.81425 52.87113 34736 ft 546 kts 89°
2026-04-21 14:18 22.81196 52.95333 34737 ft 545 kts 89°
2026-04-21 14:19 22.80966 53.03574 34736 ft 545 kts 89°
2026-04-21 14:19 22.80735 53.11785 34737 ft 545 kts 89°
2026-04-21 14:20 22.80501 53.19957 34745 ft 545 kts 89°
2026-04-21 14:20 22.80261 53.28174 34745 ft 544 kts 89°
2026-04-21 14:21 22.80016 53.36394 34739 ft 544 kts 89°
2026-04-21 14:21 22.79768 53.44591 34737 ft 544 kts 89°
2026-04-21 14:22 22.79518 53.52738 34736 ft 543 kts 89°
2026-04-21 14:22 22.79347 53.60928 34742 ft 541 kts 85°
2026-04-21 14:23 22.80224 53.68924 34751 ft 535 kts 76°
2026-04-21 14:23 22.81500 53.76870 34743 ft 535 kts 76°
2026-04-21 14:24 22.82751 53.84843 34741 ft 535 kts 77°
2026-04-21 14:24 22.83949 53.92821 34731 ft 535 kts 77°
2026-04-21 14:25 22.85118 54.00741 34744 ft 534 kts 77°
2026-04-21 14:25 22.86288 54.08681 34757 ft 533 kts 77°
2026-04-21 14:26 22.87464 54.16659 34748 ft 534 kts 77°
2026-04-21 14:26 22.88781 54.24532 34732 ft 529 kts 69°
2026-04-21 14:26 22.90084 54.28232 34752 ft 521 kts 58°
2026-04-21 14:27 22.91840 54.31639 34759 ft 515 kts 51°
2026-04-21 14:27 22.96276 54.37581 34759 ft 506 kts 41°
2026-04-21 14:28 23.00983 54.43257 34763 ft 507 kts 42°
2026-04-21 14:28 23.05683 54.49002 34746 ft 508 kts 42°
2026-04-21 14:29 23.10351 54.54778 34744 ft 508 kts 43°
2026-04-21 14:29 23.14982 54.60534 34755 ft 508 kts 43°
2026-04-21 14:30 23.19633 54.66318 34758 ft 507 kts 43°
2026-04-21 14:30 23.24279 54.72099 34694 ft 501 kts 43°
2026-04-21 14:30 23.26538 54.74914 34490 ft 496 kts 44°
2026-04-21 14:31 23.28808 54.77742 34179 ft 494 kts 44°
2026-04-21 14:31 23.31063 54.80551 33842 ft 493 kts 44°
2026-04-21 14:31 23.33320 54.83364 33490 ft 491 kts 45°
2026-04-21 14:31 23.35539 54.86131 33158 ft 488 kts 45°
2026-04-21 14:32 23.37793 54.88888 32684 ft 485 kts 43°
2026-04-21 14:32 23.40210 54.91459 32055 ft 482 kts 40°
2026-04-21 14:32 23.42642 54.93901 31582 ft 477 kts 40°
2026-04-21 14:32 23.45100 54.96329 31106 ft 473 kts 40°
2026-04-21 14:33 23.47540 54.98742 30643 ft 470 kts 40°
2026-04-21 14:33 23.49937 55.01130 30188 ft 466 kts 41°
2026-04-21 14:33 23.52318 55.03524 29713 ft 463 kts 41°
2026-04-21 14:33 23.54647 55.05879 29180 ft 460 kts 41°
2026-04-21 14:34 23.56980 55.08248 28690 ft 456 kts 41°
2026-04-21 14:34 23.59292 55.10600 28224 ft 453 kts 41°
2026-04-21 14:34 23.61586 55.12936 27782 ft 449 kts 41°
2026-04-21 14:34 23.63864 55.15255 27307 ft 445 kts 41°
2026-04-21 14:35 23.66130 55.17563 26869 ft 442 kts 41°
2026-04-21 14:35 23.68348 55.19822 26430 ft 439 kts 41°
2026-04-21 14:35 23.70575 55.22090 25996 ft 436 kts 41°
2026-04-21 14:35 23.72800 55.24358 25559 ft 434 kts 40°
2026-04-21 14:36 23.74974 55.26575 25132 ft 431 kts 40°
2026-04-21 14:36 23.77161 55.28805 24702 ft 429 kts 40°
2026-04-21 14:36 23.79345 55.31035 24264 ft 428 kts 40°
2026-04-21 14:36 23.81520 55.33256 23827 ft 426 kts 40°
2026-04-21 14:37 23.83661 55.35444 23381 ft 425 kts 40°
2026-04-21 14:37 23.85829 55.37659 22908 ft 424 kts 40°
2026-04-21 14:37 23.87976 55.39855 22455 ft 421 kts 40°
2026-04-21 14:37 23.90108 55.42037 22021 ft 418 kts 40°
2026-04-21 14:38 23.92225 55.44204 21599 ft 415 kts 40°
2026-04-21 14:38 23.94330 55.46360 21179 ft 412 kts 40°
2026-04-21 14:38 23.96388 55.48469 20870 ft 407 kts 40°
2026-04-21 14:38 23.98441 55.50574 20519 ft 403 kts 40°
2026-04-21 14:39 24.00488 55.52673 20121 ft 401 kts 40°
2026-04-21 14:39 24.02535 55.54748 19720 ft 399 kts 39°
2026-04-21 14:39 24.04584 55.56779 19325 ft 396 kts 39°
2026-04-21 14:39 24.06582 55.58745 18909 ft 384 kts 39°
2026-04-21 14:40 24.08543 55.60677 18503 ft 371 kts 39°
2026-04-21 14:40 24.10432 55.62540 18109 ft 359 kts 39°
2026-04-21 14:40 24.12255 55.64340 17653 ft 347 kts 39°
2026-04-21 14:40 24.14024 55.66089 17176 ft 338 kts 39°
2026-04-21 14:41 24.15738 55.67784 16622 ft 332 kts 40°
2026-04-21 14:41 24.17458 55.69437 16066 ft 325 kts 32°
2026-04-21 14:41 24.19485 55.70359 15491 ft 313 kts
2026-04-21 14:41 24.21605 55.70140 15002 ft 302 kts 344°
2026-04-21 14:42 24.23637 55.69645 14494 ft 298 kts 345°
2026-04-21 14:42 24.25675 55.69174 13993 ft 299 kts 346°
2026-04-21 14:42 24.27701 55.68707 13558 ft 301 kts 346°
2026-04-21 14:42 24.29751 55.68235 13157 ft 300 kts 346°
2026-04-21 14:43 24.31790 55.67766 12760 ft 298 kts 346°
2026-04-21 14:43 24.33818 55.67299 12366 ft 297 kts 346°
2026-04-21 14:43 24.35842 55.66832 11977 ft 296 kts 346°
2026-04-21 14:43 24.37830 55.66373 11602 ft 295 kts 346°
2026-04-21 14:44 24.39842 55.65910 11219 ft 294 kts 346°
2026-04-21 14:44 24.41838 55.65451 10839 ft 292 kts 346°
2026-04-21 14:44 24.43832 55.64991 10458 ft 291 kts 346°
2026-04-21 14:44 24.45789 55.64539 10109 ft 290 kts 346°
2026-04-21 14:45 24.47767 55.64084 9736 ft 288 kts 346°
2026-04-21 14:45 24.49728 55.63633 9351 ft 287 kts 346°
2026-04-21 14:45 24.51560 55.62895 8897 ft 277 kts 322°
2026-04-21 14:45 24.52988 55.61551 8609 ft 267 kts 315°
2026-04-21 14:46 24.54331 55.60201 8283 ft 263 kts 316°
2026-04-21 14:46 24.55680 55.58863 7973 ft 259 kts 316°
2026-04-21 14:46 24.57017 55.57553 7639 ft 255 kts 316°
2026-04-21 14:46 24.58338 55.56259 7323 ft 251 kts 316°
2026-04-21 14:47 24.59633 55.54991 7004 ft 246 kts 316°
2026-04-21 14:47 24.60885 55.53765 6694 ft 241 kts 316°
2026-04-21 14:47 24.62132 55.52542 6384 ft 237 kts 317°
2026-04-21 14:47 24.63349 55.51342 6058 ft 233 kts 317°
2026-04-21 14:48 24.64542 55.50158 5744 ft 228 kts 317°
2026-04-21 14:48 24.65706 55.48997 5465 ft 222 kts 316°
2026-04-21 14:48 24.66834 55.47862 5263 ft 224 kts 316°
2026-04-21 14:48 24.67994 55.46696 4986 ft 226 kts 316°
2026-04-21 14:49 24.69160 55.45540 4702 ft 223 kts 320°
2026-04-21 14:49 24.70366 55.44493 4398 ft 221 kts 322°
2026-04-21 14:49 24.71583 55.43459 4122 ft 220 kts 322°
2026-04-21 14:49 24.72789 55.42425 3842 ft 220 kts 322°
2026-04-21 14:50 24.73587 55.41732 3657 ft 218 kts 322°
2026-04-21 14:50 24.75155 55.40348 3360 ft 217 kts 322°
2026-04-21 14:50 24.76307 55.39322 3137 ft 206 kts 323°
2026-04-21 14:50 24.77314 55.38260 3050 ft 201 kts 309°
2026-04-21 14:51 24.78107 55.37005 3013 ft 203 kts 305°
2026-04-21 14:51 24.78852 55.35681 3008 ft 203 kts 303°
2026-04-21 14:51 24.79589 55.34348 3008 ft 203 kts 303°
2026-04-21 14:51 24.80315 55.33031 2996 ft 197 kts 303°
2026-04-21 14:52 24.81019 55.31755 2901 ft 200 kts 303°
2026-04-21 14:52 24.81743 55.30443 2629 ft 195 kts 304°
2026-04-21 14:52 24.82430 55.29199 2401 ft 188 kts 304°
2026-04-21 14:52 24.83112 55.27965 2158 ft 185 kts 304°
2026-04-21 14:53 24.83754 55.26799 1915 ft 169 kts 305°
2026-04-21 14:53 24.84331 55.25753 1726 ft 153 kts 306°
2026-04-21 14:53 24.84893 55.24738 1561 ft 157 kts 306°
2026-04-21 14:53 24.85460 55.23714 1338 ft 159 kts 306°
2026-04-21 14:54 24.86017 55.22681 1131 ft 156 kts 304°
2026-04-21 14:54 24.86563 55.21636 894 ft 157 kts 306°
2026-04-21 14:54 24.87138 55.20650 660 ft 151 kts 306°
2026-04-21 14:54 24.87684 55.19668 582 ft 152 kts 304°
2026-04-21 14:55 24.88244 55.18678 455 ft 153 kts 303°
2026-04-21 14:55 24.88602 55.18011 250 ft 152 kts 303°
2026-04-21 14:55 24.89279 55.16794 161 ft 119 kts 301°
2026-04-21 14:55 24.89608 55.16204 163 ft 75 kts 301°
2026-04-21 14:56 24.89773 55.15909 162 ft 60 kts 301°
2026-04-21 14:56 24.89946 55.15575 162 ft 38 kts 292°
2026-04-21 14:56 24.89989 55.15384 162 ft 15 kts 271°
2026-04-21 14:56 24.89992 55.15269 163 ft 15 kts 271°
2026-04-21 14:57 24.89995 55.15153 163 ft 15 kts 271°
2026-04-21 14:57 24.90007 55.15078 163 ft 8 kts 295°
2026-04-21 14:57 24.90033 55.15018 163 ft 8 kts 292°
2026-04-21 14:57 24.90004 55.14953 163 ft 15 kts 218°
2026-04-21 14:58 24.89909 55.14888 163 ft 16 kts 211°
2026-04-21 14:58 24.89813 55.14823 163 ft 16 kts 213°
2026-04-21 14:58 24.89717 55.14758 163 ft 16 kts 211°
2026-04-21 14:58 24.89620 55.14695 164 ft 16 kts 210°
2026-04-21 14:59 24.89536 55.14639 164 ft 13 kts 211°
2026-04-21 14:59 24.89458 55.14586 164 ft 13 kts 212°
2026-04-21 14:59 24.89379 55.14533 165 ft 13 kts 211°
2026-04-21 14:59 24.89300 55.14481 165 ft 13 kts 211°
2026-04-21 15:00 24.89221 55.14429 166 ft 13 kts 211°
2026-04-21 15:00 24.89145 55.14379 166 ft 11 kts 211°
2026-04-21 15:00 24.89083 55.14337 167 ft 10 kts 211°
2026-04-21 15:00 24.89067 55.14314 164 ft 2 kts 268°
2026-04-21 15:01 24.89067 55.14295 167 ft 3 kts 273°
2026-04-21 15:01 24.89075 55.14269 167 ft 4 kts 294°
2026-04-21 15:01 24.89091 55.14236 167 ft 5 kts 298°
2026-04-21 15:01 24.89096 55.14225 168 ft 0 kts 299°